M I D A S
Marine Information and Data Acquisition System
Tripno 2133 of the Zeeleeuw from 2011-02-24 08:26:42 to 2011-02-24 17:00:55
Back to CruiseResearch ActivitiesStationsMapUnderway DataData graphs

EquipmentUnitsComment
TimeDGPSUTC
LatitudeDGPSDM.mWGS84
LongitudeDGPSDM.mWGS84
TemperatureSBE03/SBE38deg celciusITS90
ConductivitySBE21S/mITS90
SalinitySBE21 Practical Salinity Units
ChlorophylAChelsea fluorimeterg/lCalibrated in Aceton
Missing or incorrect values are displayed as -999
Sea surface data collected by the RV Zeeleeuw from 2011-02-24 06:56:12 to 2011-02-24 17:01:52
Time Latitude Longitude Temperature Conductivity Salinity ChlorophylA
2011-02-24 06:57:16 51°13.664 2°55.96 13.709 0.0195 0.101054 1.193347
2011-02-24 06:58:17 51°13.664 2°55.96 13.7087 0.0195 0.101048 1.158523
2011-02-24 06:59:17 51°13.662 2°55.961 13.7118 0.0195 0.101042 1.158523
2011-02-24 07:00:17 51°13.662 2°55.961 13.7114 0.0195 0.101037 1.158523
2011-02-24 07:01:17 51°13.662 2°55.962 13.7185 0.0195 0.101029 1.193347
2011-02-24 07:02:17 51°13.662 2°55.961 13.7297 0.0195 0.101021 1.193347
2011-02-24 07:03:17 51°13.663 2°55.961 13.7268 0.0195 0.101012 1.158523
2011-02-24 07:04:17 51°13.663 2°55.961 13.7236 0.0195 0.101 1.158523
2011-02-24 07:05:17 51°13.663 2°55.961 13.7225 0.0195 0.100987 1.158523
2011-02-24 07:06:17 51°13.663 2°55.961 13.7255 0.0195 0.100977 1.158523
2011-02-24 07:07:17 51°13.662 2°55.961 13.7288 0.0195 0.100969 1.158523
2011-02-24 07:08:17 51°13.663 2°55.961 13.7313 0.0195 0.10096 1.123699
2011-02-24 07:09:17 51°13.662 2°55.961 13.7208 0.0195 0.100953 1.193347
2011-02-24 07:10:17 51°13.662 2°55.961 13.7319 0.0195 0.100945 1.193347
2011-02-24 07:11:17 51°13.662 2°55.962 13.7393 0.0195 0.100936 1.193347
2011-02-24 07:12:17 51°13.662 2°55.962 13.7447 0.0195 0.100928 1.158523
2011-02-24 07:13:16 51°13.662 2°55.961 13.7487 0.0195 0.100919 1.193347
2011-02-24 07:14:17 51°13.663 2°55.961 13.7585 0.0195 0.100914 1.158523
2011-02-24 07:15:17 51°13.662 2°55.962 13.7683 0.0195 0.100907 1.193347
2011-02-24 07:16:17 51°13.662 2°55.962 13.7721 0.0195 0.100902 1.158523
2011-02-24 07:17:17 51°13.661 2°55.962 13.78 0.0195 0.100899 1.158523
2011-02-24 07:18:17 51°13.661 2°55.961 13.7767 0.0195 0.100894 1.158523
2011-02-24 07:19:17 51°13.661 2°55.962 13.7726 0.0195 0.100891 1.193347
2011-02-24 07:20:17 51°13.662 2°55.961 13.791 0.0195 0.100887 1.158523
2011-02-24 07:21:17 51°13.662 2°55.961 13.8031 0.0195 0.100881 1.193347
2011-02-24 07:22:17 51°13.662 2°55.961 13.8066 0.0195 0.100873 1.123699
2011-02-24 07:23:17 51°13.663 2°55.961 13.8371 0.0195 0.100867 1.193347
2011-02-24 07:24:17 51°13.663 2°55.96 13.838 0.0195 0.100861 1.158523
2011-02-24 07:25:17 51°13.663 2°55.96 13.8049 0.0195 0.100855 1.193347
2011-02-24 07:26:17 51°13.663 2°55.959 13.8099 0.0195 0.100851 1.193347
2011-02-24 07:27:17 51°13.663 2°55.959 13.8233 0.0195 0.100849 1.193347
2011-02-24 07:28:17 51°13.663 2°55.96 13.7928 0.0195 0.100844 1.193347
2011-02-24 07:29:17 51°13.663 2°55.96 13.8248 0.0195 0.10084 1.193347
2011-02-24 07:30:17 51°13.662 2°55.959 13.8322 0.0195 0.100834 1.158523
2011-02-24 07:31:17 51°13.662 2°55.959 13.8281 0.0195 0.100825 1.193347
2011-02-24 07:32:16 51°13.662 2°55.959 13.8042 0.0195 0.100814 1.158523
2011-02-24 07:33:16 51°13.662 2°55.96 13.8267 0.0195 0.100801 1.158523
2011-02-24 07:34:17 51°13.662 2°55.96 13.8555 0.0195 0.100789 1.158523
2011-02-24 07:35:17 51°13.662 2°55.96 13.8528 0.0195 0.100776 1.158523
2011-02-24 07:36:17 51°13.662 2°55.961 13.8508 0.0195 0.100762 1.158523
2011-02-24 07:37:17 51°13.662 2°55.96 13.8586 0.0195 0.100747 1.123699
2011-02-24 07:38:16 51°13.662 2°55.961 13.8657 0.0195 0.100735 1.158523
2011-02-24 07:39:16 51°13.662 2°55.96 13.8614 0.0195 0.100723 1.158523
2011-02-24 07:40:17 51°13.662 2°55.961 13.8714 0.0195 0.100714 1.193347
2011-02-24 07:41:17 51°13.662 2°55.961 13.874 0.0195 0.100705 1.158523
2011-02-24 07:42:17 51°13.662 2°55.961 13.9049 0.0195 0.100698 1.158523
2011-02-24 07:43:17 51°13.662 2°55.961 13.8919 0.0195 0.100693 1.158523
2011-02-24 07:44:17 51°13.662 2°55.961 13.9121 0.0195 0.100685 1.158523
2011-02-24 07:45:17 51°13.663 2°55.961 13.885 0.0195 0.100679 1.158523
2011-02-24 07:46:16 51°13.663 2°55.961 13.8972 0.0195 0.100671 1.158523
2011-02-24 07:47:17 51°13.663 2°55.961 13.9015 0.0195 0.10066 1.158523
2011-02-24 07:48:17 51°13.662 2°55.961 13.8948 0.0195 0.100651 1.193347
2011-02-24 07:49:17 51°13.662 2°55.961 13.8994 0.0195 0.100642 1.193347
2011-02-24 07:50:17 51°13.662 2°55.961 13.8909 0.0195 0.100634 1.193347
2011-02-24 07:51:17 51°13.661 2°55.961 13.8866 0.0195 0.100627 1.158523
2011-02-24 07:52:17 51°13.662 2°55.961 13.9091 0.0195 0.100622 1.193347
2011-02-24 07:53:17 51°13.661 2°55.961 13.9047 0.0195 0.100617 1.158523
2011-02-24 07:54:16 51°13.661 2°55.962 13.9021 0.0195 0.10061 1.158523
2011-02-24 07:55:16 51°13.661 2°55.961 13.9173 0.0195 0.100604 1.158523
2011-02-24 07:56:17 51°13.662 2°55.961 13.9104 0.0195 0.100599 1.193347
2011-02-24 07:57:16 51°13.662 2°55.961 13.9281 0.0195 0.100593 1.158523
2011-02-24 07:58:17 51°13.662 2°55.961 13.9291 0.0195 0.100589 1.158523
2011-02-24 07:59:17 51°13.662 2°55.962 13.9184 0.0195 0.100584 1.158523
2011-02-24 08:00:17 51°13.662 2°55.961 13.9337 0.0195 0.100581 1.158523
2011-02-24 08:01:17 51°13.662 2°55.961 13.9298 0.0195 0.100576 1.193347
2011-02-24 08:02:17 51°13.662 2°55.96 13.9249 0.0195 0.100574 1.158523
2011-02-24 08:03:17 51°13.662 2°55.961 13.9316 0.0195 0.100572 1.193347
2011-02-24 08:04:17 51°13.662 2°55.96 13.9394 0.0195 0.10057 1.193347
2011-02-24 08:05:16 51°13.663 2°55.961 13.9458 0.0195 0.100567 1.158523
2011-02-24 08:06:17 51°13.663 2°55.96 13.96 0.0195 0.100563 1.158523
2011-02-24 08:07:17 51°13.663 2°55.96 13.9602 0.0195 0.100558 1.158523
2011-02-24 08:08:17 51°13.664 2°55.961 13.9633 0.0195 0.100554 1.158523
2011-02-24 08:09:17 51°13.664 2°55.961 13.9673 0.0195 0.10055 1.193347
2011-02-24 08:10:17 51°13.664 2°55.961 13.972 0.0195 0.100546 1.193347
2011-02-24 08:11:17 51°13.664 2°55.96 13.9753 0.0195 0.100542 1.158523
2011-02-24 08:12:16 51°13.664 2°55.96 13.9776 0.0195 0.100538 1.193347
2011-02-24 08:13:17 51°13.665 2°55.96 13.981 0.0195 0.100537 1.193347
2011-02-24 08:14:17 51°13.665 2°55.961 13.9893 0.0195 0.100533 1.158523
2011-02-24 08:15:17 51°13.664 2°55.961 14.0013 0.0195 0.100533 1.158523
2011-02-24 08:16:17 51°13.664 2°55.962 13.994 0.0195 0.100532 1.193347
2011-02-24 08:17:17 51°13.664 2°55.961 14.0071 0.0195 0.10053 1.158523
2011-02-24 08:18:17 51°13.664 2°55.962 14.0128 0.0195 0.100529 1.193347
2011-02-24 08:19:17 51°13.664 2°55.962 14.0169 0.0195 0.10053 1.158523
2011-02-24 08:20:17 51°13.664 2°55.961 14.0272 0.0195 0.100532 1.158523
2011-02-24 08:21:16 51°13.664 2°55.961 14.0294 0.0195 0.100533 1.193347
2011-02-24 08:22:16 51°13.663 2°55.962 14.0341 0.0195 0.10054 1.158523
2011-02-24 08:23:17 51°13.663 2°55.962 14.0413 0.0195 0.100545 1.193347
2011-02-24 08:24:17 51°13.663 2°55.962 14.0512 0.0195 0.100547 1.193347
2011-02-24 08:25:17 51°13.662 2°55.96 14.0576 0.0195 0.100551 1.193347
2011-02-24 08:26:17 51°13.662 2°55.96 14.0541 0.0195 0.100554 1.158523
2011-02-24 08:27:17 51°13.662 2°55.96 14.0606 0.0195 0.100555 1.193347
2011-02-24 08:28:17 51°13.661 2°55.961 14.0884 0.0195 0.100555 1.158523
2011-02-24 08:29:17 51°13.662 2°55.961 14.09 0.0195 0.100555 1.193347
2011-02-24 08:30:17 51°13.66 2°55.96 14.0894 0.0195 0.100555 1.193347
2011-02-24 08:31:16 51°13.668 2°55.941 14.02 0.019396 0.100033 1.262995
2011-02-24 08:32:16 51°13.694 2°55.856 14.0675 0.0195 0.100554 1.262995
2011-02-24 08:33:17 51°13.707 2°55.767 14.0595 0.0195 0.100547 1.262995
2011-02-24 08:34:17 51°13.709 2°55.734 14.0045 0.0195 0.100538 1.262995
2011-02-24 08:35:17 51°13.705 2°55.711 14.1414 0.0195 0.100515 1.262995
2011-02-24 08:36:15 51°13.795 2°55.654 13.9258 0.019396 0.10001 1.262995
2011-02-24 08:37:17 51°13.943 2°55.54 13.9803 0.0195 0.100528 1.228171
2011-02-24 08:38:16 51°14.105 2°55.429 14.0021 0.0195 0.100525 0.949579
2011-02-24 08:39:17 51°14.271 2°55.286 14.0248 0.019396 0.100006 1.088875
2011-02-24 08:40:15 51°14.43 2°55.128 13.8949 0.019396 0.100005 0.601338
2011-02-24 08:41:13 51°14.589 2°54.956 13.755 0.0195 0.100528 0.775459
2011-02-24 08:42:13 51°14.761 2°54.777 13.8566 0.019396 0.100007 0.670986
2011-02-24 08:43:13 51°14.949 2°54.602 13.7916 0.019396 0.100009 0.70581
2011-02-24 08:44:14 51°15.119 2°54.376 13.7394 0.019396 0.100013 0.914755
2011-02-24 08:45:13 51°15.257 2°54.107 13.7458 0.0195 0.100536 0.636162
2011-02-24 08:46:13 51°15.402 2°53.843 13.7436 0.019396 0.100024 0.810283
2011-02-24 08:47:13 51°15.546 2°53.575 13.7582 0.019396 0.100028 0.566514
2011-02-24 08:48:13 51°15.71 2°53.344 13.6914 0.019396 0.100028 0.35757
2011-02-24 08:49:13 51°15.908 2°53.203 13.731 0.019396 0.100033 0.496866
2011-02-24 08:50:13 51°16.11 2°53.071 13.7093 0.019396 0.100035 0.496866
2011-02-24 08:51:13 51°16.312 2°52.935 13.6712 0.019396 0.100035 0.984403
2011-02-24 08:52:13 51°16.513 2°52.799 13.6633 0.019396 0.100035 0.914755
2011-02-24 08:53:13 51°16.713 2°52.662 13.6932 0.019396 0.100035 0.601338
2011-02-24 08:54:13 51°16.914 2°52.529 13.7172 0.019396 0.100033 0.53169
2011-02-24 08:55:13 51°17.114 2°52.391 13.6724 0.019396 0.100031 0.601338
2011-02-24 08:56:13 51°17.317 2°52.254 13.6658 0.019396 0.100028 0.392394
2011-02-24 08:57:12 51°17.516 2°52.122 13.6953 0.019396 0.100027 0.636162
2011-02-24 08:58:13 51°17.721 2°51.982 13.6923 0.019396 0.100024 0.601338
2011-02-24 08:59:13 51°17.921 2°51.842 13.717 0.019396 0.100022 0.427218
2011-02-24 09:00:12 51°18.12 2°51.703 13.7027 0.019396 0.10002 0.427218
2011-02-24 09:01:12 51°18.324 2°51.561 13.7026 0.019396 0.100016 0.392394
2011-02-24 09:02:12 51°18.527 2°51.418 13.71 0.019396 0.100015 0.740634
2011-02-24 09:03:12 51°18.729 2°51.276 13.7246 0.019396 0.100011 0.636162
2011-02-24 09:04:12 51°18.931 2°51.133 13.7495 0.019396 0.100009 0.427218
2011-02-24 09:05:12 51°19.132 2°50.988 13.7531 0.019396 0.100006 0.35757
2011-02-24 09:06:12 51°19.335 2°50.844 13.7716 0.019396 0.100003 0.392394
2011-02-24 09:07:12 51°19.538 2°50.7 13.7665 0.019396 0.100001 0.392394
2011-02-24 09:08:12 51°19.742 2°50.553 13.7644 0.019396 0.1 0.496866
2011-02-24 09:09:13 51°19.94 2°50.372 13.8092 0.019396 0.099998 0.914755
2011-02-24 09:10:13 51°20.112 2°50.139 13.799 0.019396 0.099994 0.670986
2011-02-24 09:11:13 51°20.277 2°49.895 13.8259 0.019396 0.099993 0.427218
2011-02-24 09:12:13 51°20.444 2°49.657 13.8434 0.019396 0.099994 0.53169
2011-02-24 09:13:13 51°20.614 2°49.429 13.8418 0.019396 0.099993 0.35757
2011-02-24 09:14:13 51°20.786 2°49.2 13.8147 0.019396 0.099879 0.322746
2011-02-24 09:15:13 51°20.959 2°48.972 13.8917 0.019396 0.100002 1.193347
2011-02-24 09:16:13 51°21.134 2°48.744 13.9177 0.019396 0.1 1.228171
2011-02-24 09:17:13 51°21.309 2°48.519 13.9379 0.019396 0.100003 1.158523
2011-02-24 09:18:13 51°21.487 2°48.302 13.5825 0.019396 0.099967 1.228171
2011-02-24 09:19:13 51°21.694 2°48.168 13.562 0.019396 0.100005 0.70581
2011-02-24 09:20:13 51°21.909 2°48.098 13.8231 0.019396 0.099987 0.984403
2011-02-24 09:21:13 51°22.126 2°48.035 13.9184 0.019396 0.100001 0.322746
2011-02-24 09:22:13 51°22.342 2°47.965 13.94 0.019396 0.100002 1.158523
2011-02-24 09:23:13 51°22.557 2°47.897 13.9655 0.019396 0.099998 1.054051
2011-02-24 09:24:13 51°22.775 2°47.826 13.9934 0.019396 0.099996 1.158523
2011-02-24 09:25:13 51°22.992 2°47.756 14.0328 0.019396 0.099992 1.123699
2011-02-24 09:26:13 51°23.21 2°47.682 14.0512 0.019396 0.09999 1.193347
2011-02-24 09:27:13 51°23.427 2°47.608 14.0789 0.019396 0.099987 1.158523
2011-02-24 09:28:13 51°23.644 2°47.538 14.1045 0.019396 0.099985 1.088875
2011-02-24 09:29:13 51°23.861 2°47.468 13.183 0.019396 0.099924 1.262995
2011-02-24 09:30:13 51°24.075 2°47.398 13.4289 0.019396 0.099976 0.70581
2011-02-24 09:31:13 51°24.289 2°47.329 13.5734 0.019396 0.099975 1.123699
2011-02-24 09:32:13 51°24.502 2°47.26 13.618 0.019396 0.099972 0.845107
2011-02-24 09:33:13 51°24.715 2°47.19 13.5748 0.019292 0.099451 0.879931
2011-02-24 09:34:13 51°24.929 2°47.117 13.6496 0.019396 0.099968 0.566514
2011-02-24 09:35:13 51°25.143 2°47.046 13.7525 0.019396 0.099967 0.636162
2011-02-24 09:36:13 51°25.359 2°46.974 13.7133 0.019292 0.099445 0.670986
2011-02-24 09:37:13 51°25.576 2°46.898 13.7619 0.019292 0.099443 0.601338
2011-02-24 09:38:13 51°25.795 2°46.829 13.7719 0.019396 0.099961 0.670986
2011-02-24 09:39:13 51°26.016 2°46.763 13.8281 0.019396 0.099959 0.636162
2011-02-24 09:40:13 51°26.233 2°46.696 13.8059 0.019396 0.099953 1.019227
2011-02-24 09:41:13 51°26.45 2°46.618 13.8399 0.019292 0.099433 0.775459
2011-02-24 09:42:13 51°26.657 2°46.494 13.8482 0.019396 0.099949 0.984403
2011-02-24 09:43:13 51°26.863 2°46.368 13.9256 0.019292 0.099429 0.810283
2011-02-24 09:44:13 51°27.07 2°46.245 13.9315 0.019396 0.099942 0.70581
2011-02-24 09:45:13 51°27.277 2°46.122 13.9594 0.019292 0.099426 0.775459
2011-02-24 09:46:13 51°27.483 2°45.998 13.9978 0.019292 0.099424 0.53169
2011-02-24 09:47:13 51°27.689 2°45.875 13.9995 0.019292 0.09942 0.392394
2011-02-24 09:48:13 51°27.896 2°45.75 13.9955 0.019292 0.099417 0.740634
2011-02-24 09:49:13 51°28.104 2°45.631 14.0569 0.019292 0.099412 0.914755
2011-02-24 09:50:13 51°28.31 2°45.507 14.0613 0.019292 0.09941 0.566514
2011-02-24 09:51:13 51°28.516 2°45.388 14.0573 0.019292 0.099414 0.775459
2011-02-24 09:52:13 51°28.721 2°45.265 14.074 0.019292 0.099402 0.949579
2011-02-24 09:53:13 51°28.926 2°45.142 14.0981 0.019292 0.099398 0.53169
2011-02-24 09:54:13 51°29.132 2°45.02 14.1122 0.019292 0.099394 0.949579
2011-02-24 09:55:13 51°29.337 2°44.904 14.1351 0.019292 0.099389 0.496866
2011-02-24 09:56:13 51°29.543 2°44.786 14.1379 0.019292 0.099386 0.636162
2011-02-24 09:57:13 51°29.748 2°44.669 14.1777 0.019292 0.099381 0.53169
2011-02-24 09:58:13 51°29.953 2°44.546 14.18 0.019292 0.099381 0.601338
2011-02-24 09:59:13 51°30.157 2°44.428 14.1968 0.019292 0.099377 0.462042
2011-02-24 10:00:13 51°30.36 2°44.309 14.2203 0.019292 0.099376 0.392394
2011-02-24 10:01:13 51°30.566 2°44.189 14.2322 0.019292 0.099375 0.949579
2011-02-24 10:02:13 51°30.771 2°44.068 14.2346 0.019292 0.099374 0.427218
2011-02-24 10:03:13 51°30.921 2°43.97 14.2549 0.019292 0.099385 1.158523
2011-02-24 10:04:13 51°31.016 2°43.924 14.2581 0.019292 0.099392 1.193347
2011-02-24 10:05:13 51°31.105 2°43.941 14.584 0.019292 0.099263 0.322746
2011-02-24 10:06:13 51°31.208 2°43.979 14.5338 0.019292 0.099377 0.253098
2011-02-24 10:07:13 51°31.316 2°44.017 14.5524 0.019292 0.099383 0.287922
2011-02-24 10:08:13 51°31.423 2°44.055 14.5741 0.019292 0.099385 0.322746
2011-02-24 10:09:13 51°31.529 2°44.095 14.5953 0.019292 0.099381 0.287922
2011-02-24 10:10:13 51°31.63 2°44.132 14.6207 0.019292 0.099376 0.322746
2011-02-24 10:11:13 51°31.729 2°44.168 14.645 0.019292 0.099371 0.392394
2011-02-24 10:12:13 51°31.827 2°44.205 14.6634 0.019292 0.099362 0.392394
2011-02-24 10:13:13 51°31.922 2°44.253 14.6886 0.019292 0.099349 0.392394
2011-02-24 10:14:13 51°32.015 2°44.308 14.7198 0.019292 0.09934 0.462042
2011-02-24 10:15:13 51°32.108 2°44.359 14.7451 0.019292 0.099328 0.392394
2011-02-24 10:16:13 51°32.209 2°44.414 14.7804 0.019396 0.099837 0.35757
2011-02-24 10:17:13 51°32.318 2°44.476 14.8076 0.019292 0.0993 0.392394
2011-02-24 10:18:13 51°32.428 2°44.539 14.8343 0.019292 0.099292 0.392394
2011-02-24 10:19:13 51°32.538 2°44.604 14.8529 0.019292 0.099278 0.392394
2011-02-24 10:20:13 51°32.649 2°44.667 14.8801 0.019292 0.099267 0.392394
2011-02-24 10:21:13 51°32.759 2°44.732 14.9089 0.019292 0.099256 0.392394
2011-02-24 10:22:13 51°32.869 2°44.795 14.9317 0.019292 0.099245 0.392394
2011-02-24 10:23:13 51°32.979 2°44.859 14.9514 0.019292 0.099233 0.427218
2011-02-24 10:24:13 51°33.088 2°44.923 14.9799 0.019292 0.099223 0.462042
2011-02-24 10:25:13 51°33.198 2°44.987 14.9906 0.019292 0.099208 0.427218
2011-02-24 10:26:13 51°33.306 2°45.051 15.0285 0.019292 0.0992 0.427218
2011-02-24 10:27:13 51°33.415 2°45.115 15.0469 0.019292 0.099199 0.427218
2011-02-24 10:28:13 51°33.521 2°45.187 15.067 0.019396 0.099702 0.427218
2011-02-24 10:29:13 51°33.624 2°45.27 15.0985 0.019292 0.099177 0.427218
2011-02-24 10:30:13 51°33.727 2°45.351 15.1166 0.019396 0.099687 0.462042
2011-02-24 10:31:13 51°33.829 2°45.432 15.1516 0.019292 0.09916 0.462042
2011-02-24 10:32:13 51°33.931 2°45.515 15.1642 0.019292 0.099149 0.462042
2011-02-24 10:33:13 51°34.033 2°45.597 15.1846 0.019396 0.099655 0.496866
2011-02-24 10:34:13 51°34.135 2°45.68 15.2121 0.019396 0.099647 0.496866
2011-02-24 10:35:13 51°34.237 2°45.762 14.3455 0.019396 0.099656 1.506764
2011-02-24 10:36:13 51°34.34 2°45.844 14.5345 0.019396 0.099642 1.367467
2011-02-24 10:37:13 51°34.441 2°45.926 14.5309 0.019396 0.099628 1.054051
2011-02-24 10:38:13 51°34.542 2°46.008 14.5685 0.019396 0.099618 1.019227
2011-02-24 10:39:13 51°34.644 2°46.09 14.5952 0.019396 0.099606 1.158523
2011-02-24 10:40:13 51°34.746 2°46.172 14.6454 0.019292 0.09908 1.088875
2011-02-24 10:41:13 51°34.848 2°46.252 14.6383 0.019292 0.099069 1.228171
2011-02-24 10:42:13 51°34.951 2°46.3 14.7134 0.019396 0.099575 1.262995
2011-02-24 10:43:13 51°35.049 2°46.325 14.6987 0.019292 0.099046 1.193347
2011-02-24 10:44:13 51°35.144 2°46.365 14.7231 0.019396 0.099555 1.262995
2011-02-24 10:45:13 51°35.24 2°46.403 14.7318 0.019396 0.099545 1.297819
2011-02-24 10:46:13 51°35.335 2°46.46 14.7632 0.019396 0.099536 1.228171
2011-02-24 10:47:13 51°35.426 2°46.539 14.7646 0.019396 0.099528 1.193347
2011-02-24 10:48:13 51°35.518 2°46.613 14.7977 0.019396 0.09952 1.228171
2011-02-24 10:49:13 51°35.61 2°46.687 14.8216 0.019396 0.099511 1.228171
2011-02-24 10:50:13 51°35.701 2°46.761 14.8347 0.019396 0.0995 0.949579
2011-02-24 10:51:13 51°35.793 2°46.835 14.837 0.019396 0.099488 1.019227
2011-02-24 10:52:13 51°35.885 2°46.907 14.8959 0.019396 0.099478 1.019227
2011-02-24 10:53:13 51°35.976 2°46.982 14.8731 0.019396 0.099465 1.332643
2011-02-24 10:54:13 51°36.067 2°47.055 14.9044 0.019396 0.099453 1.262995
2011-02-24 10:55:13 51°36.159 2°47.129 14.931 0.019396 0.099441 1.262995
2011-02-24 10:56:13 51°36.251 2°47.201 14.9319 0.019396 0.099428 1.262995
2011-02-24 10:57:13 51°36.342 2°47.274 14.9597 0.019396 0.099415 1.262995
2011-02-24 10:58:13 51°36.433 2°47.347 14.9572 0.019396 0.099402 1.228171
2011-02-24 10:59:13 51°36.523 2°47.42 14.9696 0.019396 0.099392 1.262995
2011-02-24 11:00:13 51°36.613 2°47.495 14.9914 0.019396 0.099381 1.297819
2011-02-24 11:01:13 51°36.703 2°47.567 15.0191 0.019396 0.099368 1.158523
2011-02-24 11:02:13 51°36.792 2°47.638 15.029 0.019396 0.099358 1.088875
2011-02-24 11:03:13 51°36.881 2°47.704 15.0208 0.019396 0.099344 1.158523
2011-02-24 11:04:13 51°36.984 2°47.731 15.0453 0.019396 0.099337 1.228171
2011-02-24 11:05:13 51°37.092 2°47.733 15.0302 0.019396 0.099326 1.158523
2011-02-24 11:06:13 51°37.187 2°47.65 15.0652 0.019396 0.099313 0.984403
2011-02-24 11:07:13 51°37.281 2°47.554 15.0667 0.019396 0.099298 1.123699
2011-02-24 11:08:13 51°37.376 2°47.458 15.0749 0.019396 0.099286 0.70581
2011-02-24 11:09:13 51°37.462 2°47.341 15.0897 0.019396 0.099276 0.984403
2011-02-24 11:10:13 51°37.534 2°47.203 15.1002 0.019396 0.099263 0.636162
2011-02-24 11:11:13 51°37.606 2°47.067 15.1084 0.019396 0.099253 1.054051
2011-02-24 11:12:13 51°37.649 2°46.899 15.1208 0.019396 0.099244 1.228171
2011-02-24 11:13:13 51°37.642 2°46.713 15.1301 0.019396 0.099233 0.949579
2011-02-24 11:14:13 51°37.613 2°46.531 15.1358 0.019396 0.099225 1.158523
2011-02-24 11:15:13 51°37.548 2°46.405 15.1537 0.019396 0.099215 1.019227
2011-02-24 11:16:13 51°37.456 2°46.337 15.1687 0.019396 0.099206 1.054051
2011-02-24 11:17:13 51°37.355 2°46.276 15.1809 0.019396 0.099193 1.054051
2011-02-24 11:18:13 51°37.254 2°46.208 15.1925 0.019396 0.099186 1.193347
2011-02-24 11:19:13 51°37.154 2°46.141 15.2039 0.019396 0.099175 0.845107
2011-02-24 11:20:13 51°37.053 2°46.074 15.2141 0.019396 0.099166 0.740634
2011-02-24 11:21:13 51°36.952 2°46.008 15.2263 0.019396 0.099163 0.775459
2011-02-24 11:22:13 51°36.85 2°45.944 15.232 0.019396 0.099158 0.984403
2011-02-24 11:23:13 51°36.749 2°45.877 15.2444 0.019396 0.099151 0.636162
2011-02-24 11:24:13 51°36.648 2°45.809 15.2616 0.019396 0.099147 0.70581
2011-02-24 11:25:13 51°36.546 2°45.742 15.2671 0.019396 0.099147 0.636162
2011-02-24 11:26:13 51°36.445 2°45.673 15.2805 0.019396 0.099153 0.879931
2011-02-24 11:27:13 51°36.343 2°45.605 15.291 0.019396 0.09916 0.914755
2011-02-24 11:28:13 51°36.241 2°45.537 15.3021 0.019396 0.09916 1.054051
2011-02-24 11:29:13 51°36.14 2°45.471 15.3134 0.019396 0.099161 0.949579
2011-02-24 11:30:13 51°36.038 2°45.404 15.3245 0.019396 0.09916 0.70581
2011-02-24 11:31:13 51°35.936 2°45.336 15.3368 0.019396 0.099164 0.949579
2011-02-24 11:32:13 51°35.834 2°45.269 15.3474 0.019396 0.099173 1.123699
2011-02-24 11:33:13 51°35.732 2°45.201 15.3566 0.019396 0.09918 0.462042
2011-02-24 11:34:13 51°35.629 2°45.131 15.3664 0.019396 0.099186 1.054051
2011-02-24 11:35:13 51°35.527 2°45.062 15.378 0.019396 0.099191 0.845107
2011-02-24 11:36:13 51°35.427 2°44.981 15.3863 0.019396 0.099198 0.70581
2011-02-24 11:37:13 51°35.328 2°44.893 15.3965 0.019396 0.09921 0.949579
2011-02-24 11:38:13 51°35.229 2°44.805 15.4084 0.019396 0.09922 1.193347
2011-02-24 11:39:13 51°35.13 2°44.717 15.4179 0.019396 0.099226 1.054051
2011-02-24 11:40:13 51°35.031 2°44.63 15.426 0.019396 0.099236 0.914755
2011-02-24 11:41:13 51°34.932 2°44.542 15.4361 0.019396 0.099244 1.158523
2011-02-24 11:42:13 51°34.831 2°44.455 15.4494 0.019396 0.099253 0.70581
2011-02-24 11:43:13 51°34.731 2°44.369 15.4528 0.019396 0.099264 0.636162
2011-02-24 11:44:13 51°34.632 2°44.282 15.4629 0.019396 0.099275 0.810283
2011-02-24 11:45:13 51°34.532 2°44.197 15.4745 0.019396 0.099289 0.740634
2011-02-24 11:46:13 51°34.431 2°44.113 15.4743 0.019396 0.0993 0.740634
2011-02-24 11:47:13 51°34.331 2°44.027 15.4897 0.019396 0.099312 0.879931
2011-02-24 11:48:13 51°34.231 2°43.941 15.4978 0.019396 0.099324 0.949579
2011-02-24 11:49:13 51°34.129 2°43.856 15.5062 0.019396 0.099338 0.984403
2011-02-24 11:50:13 51°34.029 2°43.771 15.5209 0.019292 0.098834 0.984403
2011-02-24 11:51:13 51°33.927 2°43.692 15.5269 0.019396 0.09936 0.740634
2011-02-24 11:52:13 51°33.819 2°43.646 15.5373 0.019396 0.09937 1.158523
2011-02-24 11:53:13 51°33.715 2°43.578 15.5384 0.019292 0.098866 0.462042
2011-02-24 11:54:13 51°33.651 2°43.444 15.5533 0.019396 0.099391 0.496866
2011-02-24 11:55:13 51°33.63 2°43.284 15.5738 0.019292 0.09889 1.019227
2011-02-24 11:56:13 51°33.626 2°43.114 15.5776 0.019292 0.098901 0.53169
2011-02-24 11:57:13 51°33.621 2°42.933 15.5799 0.019292 0.098911 1.019227
2011-02-24 11:58:13 51°33.616 2°42.747 15.5964 0.019292 0.098931 0.879931
2011-02-24 11:59:13 51°33.612 2°42.561 15.606 0.019292 0.098945 0.70581
2011-02-24 12:00:13 51°33.608 2°42.377 15.6132 0.019292 0.098964 1.088875
2011-02-24 12:01:13 51°33.599 2°42.192 15.6199 0.019292 0.098983 0.601338
2011-02-24 12:02:13 51°33.591 2°42.008 15.6234 0.019292 0.099003 1.088875
2011-02-24 12:03:13 51°33.586 2°41.823 15.6238 0.019292 0.099024 0.427218
2011-02-24 12:04:13 51°33.627 2°41.692 15.6435 0.019292 0.099038 0.566514
2011-02-24 12:05:13 51°33.703 2°41.65 15.6493 0.019292 0.099057 0.810283
2011-02-24 12:06:13 51°33.796 2°41.615 15.6311 0.019292 0.099072 0.879931
2011-02-24 12:07:13 51°33.897 2°41.622 15.6552 0.019292 0.09909 0.53169
2011-02-24 12:08:13 51°33.999 2°41.649 15.6632 0.019292 0.099101 0.462042
2011-02-24 12:09:13 51°34.101 2°41.673 15.6764 0.019292 0.09911 0.636162
2011-02-24 12:10:13 51°34.203 2°41.699 15.6773 0.019292 0.099115 0.53169
2011-02-24 12:11:13 51°34.305 2°41.726 15.6938 0.019292 0.099119 0.845107
2011-02-24 12:12:13 51°34.408 2°41.75 15.7025 0.019292 0.099122 0.566514
2011-02-24 12:13:13 51°34.511 2°41.776 15.7019 0.019292 0.099124 0.496866
2011-02-24 12:14:13 51°34.612 2°41.803 15.7144 0.019292 0.099126 0.566514
2011-02-24 12:15:13 51°34.712 2°41.843 15.7058 0.019188 0.098612 0.53169
2011-02-24 12:16:13 51°34.811 2°41.889 15.7272 0.019188 0.098612 0.427218
2011-02-24 12:17:13 51°34.909 2°41.935 15.7404 0.019292 0.099132 0.636162
2011-02-24 12:18:13 51°35.008 2°41.976 15.7505 0.019188 0.098614 0.845107
2011-02-24 12:19:13 51°35.107 2°42.018 15.7521 0.019292 0.099132 0.601338
2011-02-24 12:20:13 51°35.205 2°42.062 15.7662 0.019292 0.099128 1.088875
2011-02-24 12:21:13 51°35.304 2°42.099 15.7779 0.019188 0.098611 0.53169
2011-02-24 12:22:13 51°35.403 2°42.143 15.7808 0.019188 0.098609 0.496866
2011-02-24 12:23:13 51°35.501 2°42.192 15.7751 0.019188 0.098604 0.427218
2011-02-24 12:24:13 51°35.599 2°42.238 15.7772 0.019188 0.098599 0.70581
2011-02-24 12:25:13 51°35.698 2°42.281 15.8013 0.019188 0.098595 0.392394
2011-02-24 12:26:13 51°35.797 2°42.329 15.8054 0.019188 0.098593 0.566514
2011-02-24 12:27:13 51°35.897 2°42.371 15.8051 0.019188 0.098589 0.670986
2011-02-24 12:28:13 51°35.997 2°42.415 15.8304 0.019188 0.098585 0.462042
2011-02-24 12:29:13 51°36.098 2°42.455 15.8293 0.019188 0.098583 0.35757
2011-02-24 12:30:13 51°36.199 2°42.498 15.8456 0.019188 0.098581 0.427218
2011-02-24 12:31:13 51°36.301 2°42.538 15.8425 0.019188 0.098579 0.740634
2011-02-24 12:32:13 51°36.402 2°42.58 15.8601 0.019188 0.098579 0.427218
2011-02-24 12:33:13 51°36.502 2°42.622 15.8543 0.019188 0.098575 0.427218
2011-02-24 12:34:13 51°36.603 2°42.664 15.8752 0.019188 0.098574 0.392394
2011-02-24 12:35:13 51°36.704 2°42.708 15.8822 0.019188 0.098571 0.427218
2011-02-24 12:36:13 51°36.804 2°42.754 15.8853 0.019188 0.09857 0.566514
2011-02-24 12:37:13 51°36.905 2°42.796 15.9126 0.019188 0.09857 1.158523
2011-02-24 12:38:13 51°37.01 2°42.775 15.9112 0.019188 0.098566 0.566514
2011-02-24 12:39:13 51°37.116 2°42.744 15.9043 0.019188 0.09856 0.636162
2011-02-24 12:40:13 51°37.222 2°42.712 15.9153 0.019188 0.098557 1.019227
2011-02-24 12:41:13 51°37.328 2°42.684 15.931 0.019188 0.098551 1.054051
2011-02-24 12:42:13 51°37.434 2°42.655 15.9151 0.019188 0.098547 0.775459
2011-02-24 12:43:13 51°37.541 2°42.627 15.9291 0.019188 0.098542 0.427218
2011-02-24 12:44:13 51°37.646 2°42.595 15.9403 0.019188 0.098537 0.53169
2011-02-24 12:45:13 51°37.751 2°42.565 15.9467 0.019188 0.098529 0.462042
2011-02-24 12:46:13 51°37.857 2°42.534 15.9544 0.019188 0.098523 1.088875
2011-02-24 12:47:13 51°37.963 2°42.503 15.9695 0.019188 0.098517 0.914755
2011-02-24 12:48:13 51°38.07 2°42.471 15.9817 0.019188 0.09851 1.123699
2011-02-24 12:49:13 51°38.175 2°42.44 15.9821 0.019188 0.098503 0.496866
2011-02-24 12:50:13 51°38.281 2°42.405 15.9953 0.019188 0.098493 1.054051
2011-02-24 12:51:13 51°38.387 2°42.371 16.0035 0.019188 0.098485 0.775459
2011-02-24 12:52:13 51°38.494 2°42.341 15.995 0.019188 0.09848 0.427218
2011-02-24 12:53:13 51°38.602 2°42.313 16.0176 0.019188 0.098474 0.53169
2011-02-24 12:54:13 51°38.711 2°42.277 16.0228 0.019188 0.098469 0.566514
2011-02-24 12:55:13 51°38.82 2°42.249 16.0226 0.019188 0.098465 0.601338
2011-02-24 12:56:13 51°38.931 2°42.223 16.0449 0.019188 0.09846 0.810283
2011-02-24 12:57:13 51°39.04 2°42.191 16.0404 0.019188 0.098455 0.740634
2011-02-24 12:58:13 51°39.15 2°42.156 16.0378 0.019188 0.098453 0.879931
2011-02-24 12:59:13 51°39.259 2°42.123 16.0524 0.019188 0.098451 0.70581
2011-02-24 13:00:13 51°39.369 2°42.089 16.0638 0.019188 0.09845 0.427218
2011-02-24 13:01:13 51°39.479 2°42.061 16.0686 0.019188 0.098447 0.949579
2011-02-24 13:02:13 51°39.59 2°42.031 16.0815 0.019188 0.098444 0.740634
2011-02-24 13:03:13 51°39.7 2°41.995 16.0822 0.019188 0.098444 0.845107
2011-02-24 13:04:13 51°39.808 2°41.962 16.0931 0.019188 0.098443 0.636162
2011-02-24 13:05:13 51°39.915 2°41.927 16.1122 0.019188 0.098446 0.949579
2011-02-24 13:06:13 51°40.021 2°41.89 16.1198 0.019188 0.098443 0.810283
2011-02-24 13:07:13 51°40.127 2°41.853 16.1298 0.019188 0.098444 1.054051
2011-02-24 13:08:13 51°40.231 2°41.796 16.1328 0.019188 0.098447 0.914755
2011-02-24 13:09:13 51°40.329 2°41.706 16.1315 0.019188 0.098447 1.088875
2011-02-24 13:10:13 51°40.41 2°41.566 16.1458 0.019188 0.098446 1.019227
2011-02-24 13:11:13 51°40.494 2°41.428 16.1567 0.019188 0.098446 0.670986
2011-02-24 13:12:13 51°40.579 2°41.289 16.1548 0.019188 0.098446 0.670986
2011-02-24 13:13:13 51°40.669 2°41.164 16.1467 0.019188 0.098443 0.427218
2011-02-24 13:14:13 51°40.77 2°41.103 16.1503 0.019188 0.098442 1.019227
2011-02-24 13:15:13 51°40.876 2°41.068 16.1682 0.019188 0.098444 1.088875
2011-02-24 13:16:13 51°40.981 2°41.036 16.1855 0.019188 0.098441 0.496866
2011-02-24 13:17:13 51°41.086 2°41.007 16.1713 0.019188 0.098441 0.775459
2011-02-24 13:18:13 51°41.191 2°40.968 16.2004 0.019188 0.098439 0.601338
2011-02-24 13:19:13 51°41.295 2°40.938 16.1964 0.019188 0.098438 0.566514
2011-02-24 13:20:13 51°41.4 2°40.915 16.1958 0.019188 0.098437 0.35757
2011-02-24 13:21:13 51°41.498 2°40.952 16.2163 0.019188 0.098437 0.601338
2011-02-24 13:22:13 51°41.595 2°40.998 16.2349 0.019188 0.098438 0.984403
2011-02-24 13:23:13 51°41.693 2°41.048 16.2285 0.019188 0.098436 1.088875
2011-02-24 13:24:13 51°41.79 2°41.097 16.2385 0.019188 0.098433 0.636162
2011-02-24 13:25:13 51°41.886 2°41.149 16.2478 0.019188 0.098429 0.601338
2011-02-24 13:26:13 51°41.983 2°41.2 16.2684 0.019188 0.098425 0.810283
2011-02-24 13:27:13 51°42.08 2°41.251 16.2148 0.019188 0.098419 0.496866
2011-02-24 13:28:13 51°42.163 2°41.336 16.2792 0.019084 0.097899 0.392394
2011-02-24 13:29:13 51°42.237 2°41.445 16.2729 0.019188 0.098408 0.636162
2011-02-24 13:30:13 51°42.312 2°41.558 16.289 0.019084 0.097888 0.427218
2011-02-24 13:31:13 51°42.356 2°41.715 16.2915 0.019084 0.097883 0.670986
2011-02-24 13:32:13 51°42.397 2°41.875 16.2969 0.019188 0.09839 0.70581
2011-02-24 13:33:13 51°42.442 2°42.033 16.2771 0.019084 0.097869 0.566514
2011-02-24 13:34:13 51°42.488 2°42.195 16.2875 0.019084 0.097863 0.70581
2011-02-24 13:35:13 51°42.535 2°42.353 16.3243 0.019084 0.09786 0.740634
2011-02-24 13:36:13 51°42.58 2°42.515 16.2928 0.019084 0.097854 0.35757
2011-02-24 13:37:13 51°42.584 2°42.695 16.337 0.019084 0.09785 0.879931
2011-02-24 13:38:13 51°42.572 2°42.861 16.3404 0.019188 0.09836 0.53169
2011-02-24 13:39:13 51°42.564 2°43.019 16.3516 0.019084 0.097839 0.496866
2011-02-24 13:40:13 51°42.555 2°43.189 16.3553 0.019084 0.097836 0.670986
2011-02-24 13:41:13 51°42.544 2°43.376 16.3715 0.019084 0.097829 1.019227
2011-02-24 13:42:13 51°42.534 2°43.557 16.3457 0.019188 0.098337 0.775459
2011-02-24 13:43:13 51°42.524 2°43.736 16.3743 0.019084 0.097813 0.914755
2011-02-24 13:44:13 51°42.515 2°43.913 16.3971 0.019084 0.097805 0.601338
2011-02-24 13:45:13 51°42.504 2°44.089 16.3884 0.019084 0.097799 1.019227
2011-02-24 13:46:13 51°42.494 2°44.265 16.3748 0.019084 0.097789 1.088875
2011-02-24 13:47:13 51°42.467 2°44.44 16.402 0.019084 0.097781 0.775459
2011-02-24 13:48:13 51°42.414 2°44.608 16.3937 0.019084 0.097774 0.775459
2011-02-24 13:49:13 51°42.361 2°44.766 16.425 0.019084 0.097763 0.636162
2011-02-24 13:50:13 51°42.307 2°44.919 16.4253 0.019084 0.097751 0.810283
2011-02-24 13:51:13 51°42.253 2°45.069 16.4352 0.019084 0.097741 0.670986
2011-02-24 13:52:13 51°42.2 2°45.219 16.425 0.019084 0.09773 1.123699
2011-02-24 13:53:13 51°42.148 2°45.369 16.4129 0.019084 0.097716 0.566514
2011-02-24 13:54:13 51°42.067 2°45.493 16.4649 0.019084 0.097703 1.054051
2011-02-24 13:55:13 51°41.973 2°45.603 16.4509 0.019084 0.097689 1.158523
2011-02-24 13:56:13 51°41.88 2°45.715 16.4689 0.019084 0.097676 1.123699
2011-02-24 13:57:13 51°41.788 2°45.827 16.4688 0.019084 0.097663 0.70581
2011-02-24 13:58:13 51°41.694 2°45.938 16.4631 0.019084 0.097649 0.740634
2011-02-24 13:59:13 51°41.581 2°45.994 16.4695 0.019084 0.097636 0.740634
2011-02-24 14:00:13 51°41.46 2°45.975 16.5027 0.019084 0.097572 0.984403
2011-02-24 14:01:13 51°41.351 2°45.935 16.5083 0.019084 0.097598 1.262995
2011-02-24 14:02:13 51°41.248 2°45.896 16.5168 0.019084 0.097592 1.228171
2011-02-24 14:03:13 51°41.148 2°45.85 16.5298 0.019084 0.097583 1.228171
2011-02-24 14:04:13 51°41.046 2°45.803 16.5423 0.019188 0.098083 1.193347
2011-02-24 14:05:13 51°40.945 2°45.757 16.5533 0.019084 0.097563 1.297819
2011-02-24 14:06:13 51°40.843 2°45.713 16.5673 0.019084 0.097554 1.332643
2011-02-24 14:07:13 51°40.742 2°45.666 16.5789 0.019084 0.097548 1.332643
2011-02-24 14:08:13 51°40.641 2°45.62 16.5859 0.019084 0.097542 1.367467
2011-02-24 14:09:13 51°40.54 2°45.575 16.5992 0.019084 0.097533 1.228171
2011-02-24 14:10:13 51°40.439 2°45.532 16.6108 0.019084 0.097528 1.297819
2011-02-24 14:11:13 51°40.339 2°45.487 16.6244 0.019084 0.097521 1.158523
2011-02-24 14:12:13 51°40.239 2°45.44 16.6349 0.019084 0.097513 1.332643
2011-02-24 14:13:13 51°40.138 2°45.396 16.6427 0.019084 0.097507 1.262995
2011-02-24 14:14:13 51°40.036 2°45.351 16.6584 0.019084 0.097501 1.158523
2011-02-24 14:15:13 51°39.931 2°45.304 16.6677 0.019084 0.097496 1.297819
2011-02-24 14:16:13 51°39.825 2°45.255 16.6736 0.019188 0.098003 1.262995
2011-02-24 14:17:13 51°39.722 2°45.191 16.6859 0.019084 0.097485 1.123699
2011-02-24 14:18:13 51°39.617 2°45.127 16.6968 0.019084 0.097476 1.158523
2011-02-24 14:19:13 51°39.511 2°45.072 16.7056 0.019084 0.097471 1.332643
2011-02-24 14:20:13 51°39.405 2°45.018 16.721 0.019084 0.097462 1.297819
2011-02-24 14:21:13 51°39.3 2°44.963 16.7293 0.019084 0.097454 1.262995
2011-02-24 14:22:13 51°39.195 2°44.908 16.7456 0.019084 0.097449 1.262995
2011-02-24 14:23:13 51°39.09 2°44.856 16.1685 0.019084 0.097479 1.332643
2011-02-24 14:24:13 51°38.986 2°44.805 16.3114 0.019084 0.097446 1.332643
2011-02-24 14:25:13 51°38.88 2°44.756 16.3564 0.019084 0.097433 1.228171
2011-02-24 14:26:13 51°38.776 2°44.704 16.3521 0.019084 0.097425 1.262995
2011-02-24 14:27:13 51°38.672 2°44.653 16.3613 0.019084 0.09742 1.193347
2011-02-24 14:28:13 51°38.567 2°44.602 16.3944 0.019084 0.097418 1.332643
2011-02-24 14:29:13 51°38.462 2°44.552 16.4206 0.019084 0.097414 1.193347
2011-02-24 14:30:13 51°38.357 2°44.503 16.4338 0.019084 0.09741 1.019227
2011-02-24 14:31:13 51°38.252 2°44.456 16.4571 0.019084 0.097407 1.332643
2011-02-24 14:32:13 51°38.147 2°44.407 16.4846 0.019084 0.097403 1.262995
2011-02-24 14:33:13 51°38.044 2°44.357 16.4981 0.019084 0.097398 1.367467
2011-02-24 14:34:13 51°37.94 2°44.31 16.5013 0.019084 0.097394 1.367467
2011-02-24 14:35:13 51°37.837 2°44.263 16.5299 0.019084 0.097396 1.228171
2011-02-24 14:36:13 51°37.734 2°44.216 16.5289 0.019084 0.097398 1.332643
2011-02-24 14:37:13 51°37.632 2°44.169 16.5377 0.019084 0.097404 1.297819
2011-02-24 14:38:13 51°37.529 2°44.122 16.5577 0.019084 0.097414 1.297819
2011-02-24 14:39:13 51°37.427 2°44.076 16.5621 0.019084 0.097423 1.332643
2011-02-24 14:40:13 51°37.326 2°44.029 16.576 0.019084 0.097433 1.332643
2011-02-24 14:41:13 51°37.224 2°43.986 16.5934 0.019084 0.097446 1.228171
2011-02-24 14:42:13 51°37.123 2°43.94 16.5979 0.019084 0.097457 1.332643
2011-02-24 14:43:13 51°37.022 2°43.898 16.6169 0.019084 0.097469 1.367467
2011-02-24 14:44:13 51°36.922 2°43.853 16.6205 0.019084 0.097482 1.123699
2011-02-24 14:45:13 51°36.823 2°43.809 16.6338 0.019084 0.097498 1.332643
2011-02-24 14:46:13 51°36.723 2°43.763 16.6477 0.019084 0.097513 1.193347
2011-02-24 14:47:13 51°36.622 2°43.72 16.6538 0.019084 0.097529 1.297819
2011-02-24 14:48:13 51°36.523 2°43.675 16.6616 0.019084 0.097542 1.332643
2011-02-24 14:49:13 51°36.424 2°43.632 16.6692 0.019084 0.097556 1.332643
2011-02-24 14:50:13 51°36.325 2°43.589 16.6814 0.019084 0.097564 1.332643
2011-02-24 14:51:13 51°36.227 2°43.545 16.6887 0.019084 0.097575 1.332643
2011-02-24 14:52:13 51°36.129 2°43.503 16.6998 0.019084 0.097583 1.332643
2011-02-24 14:53:13 51°36.031 2°43.459 16.7081 0.019084 0.097595 1.332643
2011-02-24 14:54:13 51°35.933 2°43.416 16.7148 0.019084 0.097605 1.367467
2011-02-24 14:55:13 51°35.835 2°43.374 16.7231 0.019084 0.097614 1.402292
2011-02-24 14:56:13 51°35.738 2°43.332 16.7292 0.019084 0.097623 1.228171
2011-02-24 14:57:13 51°35.641 2°43.288 16.7383 0.01898 0.097121 1.332643
2011-02-24 14:58:13 51°35.544 2°43.247 16.7453 0.01898 0.097133 1.332643
2011-02-24 14:59:13 51°35.447 2°43.204 16.7525 0.019084 0.097661 1.332643
2011-02-24 15:00:13 51°35.35 2°43.161 16.7596 0.01898 0.097161 1.402292
2011-02-24 15:01:13 51°35.254 2°43.119 16.7657 0.019084 0.097685 1.332643
2011-02-24 15:02:13 51°35.157 2°43.077 16.7742 0.01898 0.09718 1.297819
2011-02-24 15:03:13 51°35.059 2°43.035 16.778 0.01898 0.097185 1.123699
2011-02-24 15:04:13 51°34.962 2°42.994 16.7863 0.01898 0.097193 1.332643
2011-02-24 15:05:13 51°34.862 2°42.969 16.7879 0.01898 0.097198 1.297819
2011-02-24 15:06:13 51°34.762 2°42.956 16.7999 0.01898 0.097203 1.367467
2011-02-24 15:07:13 51°34.654 2°42.946 16.8056 0.01898 0.097206 1.193347
2011-02-24 15:08:13 51°34.487 2°43.011 16.7957 0.01898 0.09721 0.427218
2011-02-24 15:09:13 51°34.274 2°43.101 16.8114 0.01898 0.097215 0.392394
2011-02-24 15:10:13 51°34.057 2°43.208 16.8126 0.01898 0.097219 0.35757
2011-02-24 15:11:13 51°33.84 2°43.311 16.8261 0.01898 0.097223 0.392394
2011-02-24 15:12:13 51°33.622 2°43.414 16.8254 0.01898 0.097228 0.322746
2011-02-24 15:13:13 51°33.405 2°43.515 16.8345 0.01898 0.097231 0.462042
2011-02-24 15:14:13 51°33.19 2°43.622 16.8439 0.01898 0.097234 0.462042
2011-02-24 15:15:13 51°32.975 2°43.732 16.8477 0.01898 0.097235 0.392394
2011-02-24 15:16:13 51°32.76 2°43.843 16.8514 0.01898 0.097237 0.322746
2011-02-24 15:17:13 51°32.545 2°43.959 16.859 0.01898 0.097236 0.35757
2011-02-24 15:18:13 51°32.331 2°44.071 16.8582 0.01898 0.097239 0.322746
2011-02-24 15:19:13 51°32.118 2°44.18 16.8673 0.01898 0.097241 0.427218
2011-02-24 15:20:13 51°31.904 2°44.288 16.871 0.01898 0.097244 0.35757
2011-02-24 15:21:13 51°31.692 2°44.396 16.8783 0.01898 0.097245 0.427218
2011-02-24 15:22:13 51°31.479 2°44.504 16.8882 0.01898 0.09725 0.35757
2011-02-24 15:23:13 51°31.266 2°44.612 16.8837 0.01898 0.097249 0.35757
2011-02-24 15:24:13 51°31.053 2°44.719 16.8976 0.01898 0.09725 0.287922
2011-02-24 15:25:13 51°30.841 2°44.829 16.8941 0.01898 0.097252 0.462042
2011-02-24 15:26:13 51°30.629 2°44.936 16.9036 0.01898 0.097254 0.427218
2011-02-24 15:27:13 51°30.417 2°45.047 16.8983 0.01898 0.097256 0.287922
2011-02-24 15:28:13 51°30.206 2°45.158 16.9131 0.01898 0.097262 0.35757
2011-02-24 15:29:13 51°29.996 2°45.269 16.9032 0.01898 0.09727 0.427218
2011-02-24 15:30:13 51°29.786 2°45.382 16.9183 0.01898 0.09728 0.287922
2011-02-24 15:31:13 51°29.577 2°45.497 16.9159 0.01898 0.09729 0.496866
2011-02-24 15:32:13 51°29.366 2°45.613 16.9278 0.01898 0.097297 0.35757
2011-02-24 15:33:13 51°29.157 2°45.732 16.9277 0.01898 0.097302 0.287922
2011-02-24 15:34:13 51°28.948 2°45.854 16.9373 0.01898 0.097306 0.287922
2011-02-24 15:35:13 51°28.738 2°45.974 16.9404 0.018876 0.09679 0.35757
2011-02-24 15:36:13 51°28.528 2°46.094 16.9539 0.01898 0.097303 0.322746
2011-02-24 15:37:13 51°28.32 2°46.214 16.945 0.01898 0.097303 0.322746
2011-02-24 15:38:13 51°28.111 2°46.335 16.9516 0.01898 0.097306 0.35757
2011-02-24 15:39:13 51°27.903 2°46.457 16.9521 0.01898 0.097302 0.322746
2011-02-24 15:40:13 51°27.695 2°46.571 16.9587 0.01898 0.097302 0.287922
2011-02-24 15:41:13 51°27.492 2°46.68 16.9719 0.01898 0.097298 0.392394
2011-02-24 15:42:13 51°27.288 2°46.79 16.9749 0.01898 0.097291 0.35757
2011-02-24 15:43:13 51°27.086 2°46.902 16.9803 0.018876 0.096776 0.35757
2011-02-24 15:44:13 51°26.883 2°47.013 16.9662 0.01898 0.097283 0.287922
2011-02-24 15:45:13 51°26.68 2°47.127 16.996 0.01898 0.097277 0.427218
2011-02-24 15:46:13 51°26.477 2°47.24 16.983 0.01898 0.09727 0.287922
2011-02-24 15:47:13 51°26.273 2°47.353 16.9959 0.01898 0.097262 0.35757
2011-02-24 15:48:13 51°26.067 2°47.465 16.9841 0.018876 0.096742 0.392394
2011-02-24 15:49:13 51°25.862 2°47.581 17.0104 0.01898 0.09725 0.392394
2011-02-24 15:50:13 51°25.656 2°47.697 17.0027 0.01898 0.097244 0.392394
2011-02-24 15:51:13 51°25.452 2°47.811 16.9991 0.01898 0.097241 0.322746
2011-02-24 15:52:13 51°25.253 2°47.928 17.0025 0.018876 0.096726 0.392394
2011-02-24 15:53:13 51°25.055 2°48.046 17.0203 0.018876 0.096725 0.392394
2011-02-24 15:54:13 51°24.857 2°48.165 17.0327 0.018876 0.096726 0.427218
2011-02-24 15:55:13 51°24.659 2°48.283 17.0354 0.01898 0.09724 0.427218
2011-02-24 15:56:13 51°24.46 2°48.404 17.0176 0.018876 0.096729 0.35757
2011-02-24 15:57:13 51°24.26 2°48.525 17.0269 0.018876 0.096732 0.427218
2011-02-24 15:58:13 51°24.06 2°48.647 17.0482 0.01898 0.09725 0.53169
2011-02-24 15:59:13 51°23.859 2°48.765 17.0273 0.01898 0.097255 0.35757
2011-02-24 16:00:13 51°23.658 2°48.882 17.0348 0.018876 0.096747 0.35757
2011-02-24 16:01:13 51°23.457 2°49.001 17.0437 0.01898 0.097265 0.253098
2011-02-24 16:02:13 51°23.258 2°49.124 17.0455 0.018876 0.096761 0.35757
2011-02-24 16:03:13 51°23.056 2°49.245 17.0267 0.018876 0.096768 0.287922
2011-02-24 16:04:13 51°22.855 2°49.366 17.0358 0.018876 0.096777 0.35757
2011-02-24 16:05:13 51°22.654 2°49.49 17.0256 0.018876 0.096789 0.392394
2011-02-24 16:06:13 51°22.451 2°49.615 17.0492 0.018876 0.096799 0.427218
2011-02-24 16:07:13 51°22.253 2°49.741 17.0661 0.018876 0.096807 0.287922
2011-02-24 16:08:13 51°22.057 2°49.864 17.0662 0.018876 0.096815 0.322746
2011-02-24 16:09:13 51°21.864 2°49.988 17.0525 0.018876 0.09682 0.35757
2011-02-24 16:10:13 51°21.67 2°50.106 17.0616 0.018876 0.096825 0.287922
2011-02-24 16:11:13 51°21.475 2°50.223 17.0747 0.018876 0.096826 0.322746
2011-02-24 16:12:13 51°21.279 2°50.336 17.0534 0.018876 0.096828 0.392394
2011-02-24 16:13:13 51°21.081 2°50.449 17.0649 0.018876 0.096828 0.35757
2011-02-24 16:14:13 51°20.883 2°50.565 17.0699 0.018876 0.096828 0.322746
2011-02-24 16:15:13 51°20.686 2°50.678 17.0656 0.018876 0.096829 0.35757
2011-02-24 16:16:13 51°20.488 2°50.792 17.0724 0.018876 0.09683 0.322746
2011-02-24 16:17:13 51°20.289 2°50.907 17.0528 0.018876 0.096831 0.322746
2011-02-24 16:18:13 51°20.092 2°51.02 17.0358 0.018876 0.096835 0.287922
2011-02-24 16:19:13 51°19.895 2°51.134 17.0834 0.018876 0.096836 0.287922
2011-02-24 16:20:13 51°19.698 2°51.231 17.0492 0.018876 0.096841 0.253098
2011-02-24 16:21:13 51°19.5 2°51.318 17.0525 0.018876 0.096845 0.35757
2011-02-24 16:22:13 51°19.303 2°51.433 17.08 0.018876 0.096846 0.287922
2011-02-24 16:23:13 51°19.107 2°51.548 17.0682 0.018876 0.09685 0.287922
2011-02-24 16:24:13 51°18.908 2°51.658 17.0864 0.018876 0.096851 0.35757
2011-02-24 16:25:13 51°18.706 2°51.764 17.0845 0.018876 0.096851 0.253098
2011-02-24 16:26:13 51°18.501 2°51.852 17.0602 0.018876 0.096852 0.322746
2011-02-24 16:27:13 51°18.297 2°51.921 17.1049 0.018876 0.096851 0.70581
2011-02-24 16:28:13 51°18.092 2°52.001 17.0983 0.018876 0.096847 0.322746
2011-02-24 16:29:13 51°17.888 2°52.074 17.0942 0.018876 0.096845 0.35757
2011-02-24 16:30:13 51°17.683 2°52.147 17.1068 0.018876 0.096839 0.287922
2011-02-24 16:31:13 51°17.481 2°52.229 17.1162 0.018876 0.096836 0.322746
2011-02-24 16:32:13 51°17.284 2°52.347 17.1111 0.018876 0.096829 0.287922
2011-02-24 16:33:13 51°17.088 2°52.482 17.0816 0.018876 0.096821 0.253098
2011-02-24 16:34:13 51°16.894 2°52.628 17.1259 0.018876 0.096818 0.287922
2011-02-24 16:35:13 51°16.699 2°52.774 17.1367 0.018876 0.096816 0.287922
2011-02-24 16:36:13 51°16.504 2°52.927 17.1438 0.018876 0.09682 0.287922
2011-02-24 16:37:13 51°16.31 2°53.083 17.1429 0.018876 0.096824 0.287922
2011-02-24 16:38:13 51°16.117 2°53.238 17.1495 0.018876 0.096831 0.287922
2011-02-24 16:39:13 51°15.926 2°53.402 17.1304 0.018772 0.096326 0.287922
2011-02-24 16:40:13 51°15.736 2°53.572 17.1763 0.018876 0.096847 0.322746
2011-02-24 16:41:13 51°15.586 2°53.752 17.2058 0.018876 0.096861 0.35757
2011-02-24 16:42:13 51°15.469 2°53.894 17.215 0.018772 0.096359 0.670986
2011-02-24 16:43:13 51°15.362 2°54.029 17.2047 0.018772 0.09637 0.392394
2011-02-24 16:44:13 51°15.252 2°54.161 17.2317 0.018876 0.096898 0.462042
2011-02-24 16:45:13 51°15.11 2°54.323 17.167 0.018772 0.096398 0.35757
2011-02-24 16:46:13 51°14.937 2°54.524 17.1084 0.018772 0.096416 0.253098
2011-02-24 16:47:13 51°14.77 2°54.757 17.2093 0.018772 0.096437 0.287922
2011-02-24 16:48:13 51°14.6 2°54.978 17.2095 0.018772 0.096454 0.287922
2011-02-24 16:49:13 51°14.421 2°55.155 17.2325 0.018772 0.096472 0.287922
2011-02-24 16:50:13 51°14.249 2°55.311 17.2139 0.018772 0.096491 0.287922
2011-02-24 16:51:16 51°14.081 2°55.445 17.2675 0.018772 0.096509 0.287922
2011-02-24 16:52:16 51°13.95 2°55.539 17.2831 0.018772 0.096528 0.35757
2011-02-24 16:53:15 51°13.835 2°55.622 17.2937 0.018772 0.096544 0.392394
2011-02-24 16:54:16 51°13.75 2°55.716 17.3099 0.018772 0.096561 0.53169
2011-02-24 16:55:16 51°13.703 2°55.814 17.2841 0.018772 0.096576 0.496866
2011-02-24 16:56:14 51°13.677 2°55.897 17.2936 0.018772 0.09659 0.601338
2011-02-24 16:57:15 51°13.663 2°55.953 17.3188 0.018772 0.096607 0.601338
2011-02-24 17:01:02 51°13.661 2°55.959 17.3307 0.018772 0.096661 0.462042